Weather History for Spencer, IA

Change the Weather History Date:

Friday, February 1, 2013

  Actual Average Record
Temperature  
Mean Temperature 6 °F -  
Max Temperature 21 °F 23 °F 53 °F (1987)
Min Temperature -8 °F 2 °F -20 °F (1979)
Degree Days  
Heating Degree Days 58    
Moisture  
Dew Point -2 °F    
Average Humidity 69    
Maximum Humidity 81    
Minimum Humidity 53    
Precipitation  
Precipitation 0.00 in - - ()
Sea Level Pressure  
Sea Level Pressure 30.24 in    
Wind  
Wind Speed 9 mph (SW)    
Max Wind Speed 17 mph    
Max Gust Speed 22 mph    
Visibility 10 miles    
Events      
Averages and records for this station are not official NWS values.
T = Trace of Precipitation, MM = Missing Value Source: NWS Daily Summary

Daily Weather History Graph

Daily Weather History Graph

Search for Another Location

Airport:

Trip Planner

Search our weather history database for the weather conditions in past years. The results will help you decide how hot, cold, wet, or windy it might be!

Date:

Astronomy

Feb. 01, 2013 Rise Set
Actual Time 7:35 AM CST 5:33 PM CST
Civil Twilight 7:05 AM CST 6:03 PM CST
Nautical Twilight 6:31 AM CST 6:37 PM CST
Astronomical Twilight 5:58 AM CST 7:11 PM CST
Moon 11:53 PM CST (2/1) 9:58 AM CST (2/1)
Length of Visible Light 10h 57m
Length of Day
9h 57m
Waning Gibbous, 70% of the Moon is Illuminated
Feb 1
Waning Gibbous
Feb 3
Last Quarter
Feb 10
New
Feb 17
First Quarter
Feb 25
Full

Hourly Weather History & Observations

Time (CST) Temp. Windchill Dew Point Humidity Pressure Visibility Wind Dir Wind Speed Gust Speed Precip Events Conditions
12:53 AM -7.1 °F -25.0 °F -14.1 °F 72% 30.43 in 10.0 mi WNW 10.4 mph - N/A   Clear
1:53 AM -7.1 °F -19.9 °F -14.1 °F 72% 30.43 in 10.0 mi West 5.8 mph - N/A   Clear
2:53 AM -7.1 °F -25.0 °F -14.1 °F 72% 30.43 in 10.0 mi WNW 10.4 mph - N/A   Clear
3:53 AM -7.1 °F -21.4 °F -13.0 °F 75% 30.42 in 10.0 mi West 6.9 mph - N/A   Clear
4:53 AM -7.1 °F -19.9 °F -14.1 °F 72% 30.40 in 10.0 mi WNW 5.8 mph - N/A   Clear
5:53 AM -8.0 °F -19.2 °F -14.1 °F 75% 30.40 in 10.0 mi West 4.6 mph - N/A   Clear
6:53 AM -8.0 °F -21.0 °F -14.1 °F 75% 30.39 in 10.0 mi SSW 5.8 mph - N/A   Clear
7:53 AM -6.0 °F -18.6 °F -13.0 °F 72% 30.38 in 10.0 mi SW 5.8 mph - N/A   Clear
8:53 AM -2.0 °F -17.7 °F -9.9 °F 69% 30.38 in 10.0 mi SSW 9.2 mph - N/A   Scattered Clouds
9:53 AM 1.0 °F -14.9 °F -8.0 °F 66% 30.35 in 10.0 mi SSW 10.4 mph - N/A   Mostly Cloudy
10:53 AM 5.0 °F -10.0 °F -6.0 °F 61% 30.32 in 10.0 mi South 10.4 mph - N/A   Overcast
11:53 AM 8.1 °F -9.0 °F -4.0 °F 58% 30.27 in 10.0 mi South 15.0 mph - N/A   Overcast
12:53 PM 12.0 °F -4.0 °F -2.0 °F 53% 30.22 in 10.0 mi South 15.0 mph - N/A   Overcast
2:53 PM 16.0 °F 1.7 °F 3.9 °F 59% 30.14 in 10.0 mi South 13.8 mph - N/A   Overcast
3:53 PM 16.0 °F 0.1 °F 5.0 °F 62% 30.12 in 10.0 mi South 17.3 mph 21.9 mph N/A   Overcast
4:53 PM 18.0 °F 2.6 °F 7.0 °F 62% 30.09 in 10.0 mi South 17.3 mph - N/A   Overcast
5:53 PM 19.0 °F 8.2 °F 9.0 °F 65% 30.07 in 10.0 mi SSW 9.2 mph - N/A   Overcast
6:53 PM 19.9 °F 10.1 °F 10.9 °F 68% 30.07 in 10.0 mi SSW 8.1 mph - N/A   Overcast
7:53 PM 19.9 °F 11.1 °F 12.0 °F 71% 30.06 in 10.0 mi SSW 6.9 mph - N/A   Overcast
8:53 PM 21.0 °F 13.4 °F 12.9 °F 71% 30.05 in 10.0 mi SSW 5.8 mph - N/A   Overcast
9:53 PM 21.0 °F 14.6 °F 14.0 °F 74% 30.05 in 10.0 mi West 4.6 mph - N/A   Overcast
10:53 PM 16.0 °F 5.3 °F 10.9 °F 81% 30.05 in 10.0 mi West 8.1 mph - N/A   Partly Cloudy
11:53 PM 17.1 °F 4.3 °F 12.0 °F 81% 30.07 in 10.0 mi WNW 11.5 mph - N/A   Clear